Powrót do katalogu

APSTAR 6E

AktywnyŁącznośćGEO
NORAD 55239·PAYLOAD·🇨🇳 China

Wystrzelony Jan 12, 2023 z Xichang Satellite Launch Center

Loading…

TLE

ŚwieżeSource: Space-Track

Epoka: Sep 14, 2026, 12:43 UTC

1 55239U 23005A   26257.53041538 -.00000325  00000-0  00000-0 0  9996
2 55239   0.0468 247.8877 0003750 318.4071 112.1878  1.00272185 19594

Śledź APSTAR 6E w czasie rzeczywistym z AllMySat

Download on the App Store